This demonstration page uses our WeatherBlox Daily Observations layout. Learn more.

Left ArrowRight Arrow

39.01783, -85.05884

Hourly Observations for February 17, 2017

Temp ( °F °C ) Dew Point ( °F °C ) Humidity (%) Winds ( mph kmh ) Pressure ( in mb ) Visibility ( mi km ) Precip ( " mm )
12:52 am 00:52 Cloudy 39 3.9 23 -5 53 53 SSE 8 13 29.86 1011 10 16 0.00 0.00
1:52 am 01:52 Mostly Cloudy 37 2.8 23 -5 57 57 S 9 15 29.84 1011 10 16 0.00 0.00
2:52 am 02:52 Cloudy 42 5.6 24 -4.4 49 49 SSW 9 15 29.82 1010 10 16 0.00 0.00
3:52 am 03:52 Cloudy 44 6.7 24 -4.4 45 45 SSW 13 20 29.79 1009 10 16 0.00 0.00
4:52 am 04:52 Cloudy 44 6.7 25 -3.9 47 47 SW 10 17 29.80 1009 10 16 0.00 0.00
5:52 am 05:52 Cloudy 43 6.1 26 -3.3 51 51 SW 8 13 29.80 1009 10 16 0.00 0.00
6:52 am 06:52 Mostly Cloudy 43 6.1 26 -3.3 51 51 SW 8 13 29.82 1010 10 16 0.00 0.00
7:52 am 07:52 Partly Cloudy 42 5.6 28 -2.2 58 58 SSW 8 13 29.83 1010 10 16 0.00 0.00
8:52 am 08:52 Partly Cloudy 46 7.8 30 -1.1 54 54 SW 12 19 29.84 1011 10 16 0.00 0.00
9:52 am 09:52 Partly Cloudy 50 10 31 -0.6 48 48 SW 10 17 29.85 1011 10 16 0.00 0.00
10:52 am 10:52 Mostly Sunny 55 12.8 32 0 42 42 WSW 13 20 29.85 1011 10 16 0.00 0.00
11:52 am 11:52 Mostly Sunny 58 14.4 33 0.6 39 39 SW 13 20 29.84 1011 10 16 0.00 0.00
12:52 pm 12:52 Mostly Sunny 60 15.6 33 0.6 36 36 WSW 9 15 29.81 1010 10 16 0.00 0.00
1:52 pm 13:52 Sunny 64 17.8 34 1.1 33 33 SSW 9 15 29.80 1009 10 16 0.00 0.00
2:52 pm 14:52 Mostly Sunny 65 18.3 35 1.7 33 33 SW 13 20 29.78 1008 10 16 0.00 0.00
3:52 pm 15:52 Mostly Sunny 65 18.3 34 1.1 32 32 SSW 13 20 29.78 1008 10 16 0.00 0.00
4:52 pm 16:52 Mostly Sunny 66 18.9 34 1.1 30 30 WSW 10 17 29.78 1009 10 16 0.00 0.00
5:52 pm 17:52 Mostly Sunny 63 17.2 33 0.6 33 33 SW 9 15 29.79 1009 10 16 0.00 0.00
6:52 pm 18:52 Mostly Clear 60 15.6 33 0.6 36 36 SSW 7 11 29.81 1010 10 16 0.00 0.00
7:52 pm 19:52 Mostly Clear 58 14.4 33 0.6 39 39 SSW 7 11 29.82 1010 10 16 0.00 0.00
8:52 pm 20:52 Mostly Clear 55 12.8 33 0.6 44 44 SSW 7 11 29.83 1010 10 16 0.00 0.00
9:52 pm 21:52 Mostly Clear 54 12.2 33 0.6 45 45 SSW 7 11 29.83 1010 10 16 0.00 0.00
10:52 pm 22:52 Mostly Clear 54 12.2 33 0.6 45 45 SSW 8 13 29.83 1010 10 16 0.00 0.00
11:52 pm 23:52 Mostly Clear 50 10 32 0 50 50 SSW 6 9 29.83 1010 10 16 0.00 0.00

Powered by AerisWeather